Year,Month,Day,Hour,Minute,Value (Times are PST for temperature in C)
2014,06,06,09,18,13.70
2014,06,06,09,19,13.80
2014,06,06,09,20,13.80
2014,06,06,09,21,13.80
2014,06,06,09,22,13.90
2014,06,06,09,23,13.90
2014,06,06,09,24,13.90
2014,06,06,09,25,14.00
2014,06,06,09,26,14.00
2014,06,06,09,27,14.10
2014,06,06,09,28,14.10
2014,06,06,09,29,14.20
2014,06,06,09,30,14.20
2014,06,06,09,31,14.20
2014,06,06,09,32,14.30
2014,06,06,09,33,14.30
2014,06,06,09,34,14.30
2014,06,06,09,35,14.40
2014,06,06,09,36,14.40
2014,06,06,09,37,14.40
2014,06,06,09,38,14.40
2014,06,06,09,39,14.40
2014,06,06,09,40,14.40
2014,06,06,09,41,14.40
2014,06,06,09,42,14.50
2014,06,06,09,43,14.50
2014,06,06,09,44,14.60
2014,06,06,09,45,14.60
2014,06,06,09,46,14.70
2014,06,06,09,47,14.70
2014,06,06,09,48,14.80
2014,06,06,09,49,14.80
2014,06,06,09,50,14.90
2014,06,06,09,51,14.90
2014,06,06,09,52,14.90
2014,06,06,09,53,14.90
2014,06,06,09,54,14.80
2014,06,06,09,55,14.90
2014,06,06,09,56,14.90
2014,06,06,09,57,14.90
2014,06,06,09,58,14.90
2014,06,06,09,59,15.00
2014,06,06,10,00,15.10
2014,06,06,10,01,15.10
2014,06,06,10,02,15.20
2014,06,06,10,03,15.20
2014,06,06,10,04,15.20
2014,06,06,10,05,15.20
2014,06,06,10,06,15.30
2014,06,06,10,07,15.30
2014,06,06,10,08,15.30
2014,06,06,10,09,15.40
2014,06,06,10,10,15.40
2014,06,06,10,11,15.50
2014,06,06,10,12,15.50
2014,06,06,10,13,15.60
2014,06,06,10,14,15.60
2014,06,06,10,15,15.60
2014,06,06,10,16,15.70
2014,06,06,10,17,15.60
2014,06,06,10,18,15.60
2014,06,06,10,19,15.60
2014,06,06,10,20,15.60
2014,06,06,10,21,15.60
2014,06,06,10,22,15.60
2014,06,06,10,23,15.60
2014,06,06,10,24,15.60
2014,06,06,10,25,15.50
2014,06,06,10,26,15.50
2014,06,06,10,27,15.40
2014,06,06,10,28,15.40
2014,06,06,10,29,15.40
2014,06,06,10,30,15.40
2014,06,06,10,31,15.40
2014,06,06,10,32,15.50
2014,06,06,10,33,15.50
2014,06,06,10,34,15.50
2014,06,06,10,35,15.40
2014,06,06,10,36,15.40
2014,06,06,10,37,15.40
2014,06,06,10,38,15.30
2014,06,06,10,39,15.30
2014,06,06,10,40,15.40
2014,06,06,10,41,15.50
2014,06,06,10,42,15.60
2014,06,06,10,43,15.60
2014,06,06,10,44,15.70
2014,06,06,10,45,15.80
2014,06,06,10,46,15.80
2014,06,06,10,47,15.80
2014,06,06,10,48,15.70
2014,06,06,10,49,15.70
2014,06,06,10,50,15.60
2014,06,06,10,51,15.60
2014,06,06,10,52,15.60
2014,06,06,10,53,15.60
2014,06,06,10,54,15.70
2014,06,06,10,55,15.70
2014,06,06,10,56,15.80
2014,06,06,10,57,15.90
2014,06,06,10,58,15.90
2014,06,06,10,59,15.90
2014,06,06,11,00,16.00
2014,06,06,11,01,16.00
2014,06,06,11,02,16.00
2014,06,06,11,03,16.10
2014,06,06,11,04,16.00
2014,06,06,11,05,15.90
2014,06,06,11,06,15.90
2014,06,06,11,07,15.80
2014,06,06,11,08,15.80
2014,06,06,11,09,15.80
2014,06,06,11,10,15.80
2014,06,06,11,11,15.80
2014,06,06,11,12,15.80
2014,06,06,11,13,15.80
2014,06,06,11,14,15.90
2014,06,06,11,15,15.90
2014,06,06,11,16,15.90
2014,06,06,11,17,15.90
2014,06,06,11,18,15.90
2014,06,06,11,19,15.90
2014,06,06,11,20,15.90
2014,06,06,11,21,15.80
2014,06,06,11,22,15.80
2014,06,06,11,23,15.70
2014,06,06,11,24,15.60
2014,06,06,11,25,15.50
2014,06,06,11,26,15.50
2014,06,06,11,27,15.40
2014,06,06,11,28,15.40
2014,06,06,11,29,15.50
2014,06,06,11,30,15.50
2014,06,06,11,31,15.50
2014,06,06,11,32,15.50
2014,06,06,11,33,15.60
2014,06,06,11,34,15.60
2014,06,06,11,35,15.60
2014,06,06,11,36,15.70
2014,06,06,11,37,15.70
2014,06,06,11,38,15.70
2014,06,06,11,39,15.70
2014,06,06,11,40,15.70
2014,06,06,11,41,15.70
2014,06,06,11,42,15.70
2014,06,06,11,43,15.70
2014,06,06,11,44,15.70
2014,06,06,11,45,15.80
2014,06,06,11,46,16.00
2014,06,06,11,47,16.00
2014,06,06,11,48,16.10
2014,06,06,11,49,16.20
2014,06,06,11,50,16.20
2014,06,06,11,51,16.20
2014,06,06,11,52,16.10
2014,06,06,11,53,16.10
2014,06,06,11,54,16.00
2014,06,06,11,55,16.10
2014,06,06,11,56,16.10
2014,06,06,11,57,16.10
2014,06,06,11,58,16.20
2014,06,06,11,59,16.20
2014,06,06,12,00,16.10
2014,06,06,12,01,16.10
2014,06,06,12,02,16.10
2014,06,06,12,03,16.10
2014,06,06,12,04,16.10
2014,06,06,12,05,16.10
2014,06,06,12,06,16.10
2014,06,06,12,07,16.00
2014,06,06,12,08,15.90
2014,06,06,12,09,15.90
2014,06,06,12,10,16.00
2014,06,06,12,11,16.10
2014,06,06,12,12,16.20
2014,06,06,12,13,16.30
2014,06,06,12,14,16.30
2014,06,06,12,15,16.30
2014,06,06,12,16,16.20
2014,06,06,12,17,16.20
2014,06,06,12,18,16.20
2014,06,06,12,19,16.10
2014,06,06,12,20,16.10
2014,06,06,12,21,16.00
2014,06,06,12,22,15.90
2014,06,06,12,23,15.90
2014,06,06,12,24,15.80
2014,06,06,12,25,15.80
2014,06,06,12,26,15.80
2014,06,06,12,27,15.80
2014,06,06,12,28,15.80
2014,06,06,12,29,15.80
2014,06,06,12,30,15.80
2014,06,06,12,31,15.80
2014,06,06,12,32,15.80
2014,06,06,12,33,15.80
2014,06,06,12,34,15.80
2014,06,06,12,35,15.80
2014,06,06,12,36,15.80
2014,06,06,12,37,15.70
2014,06,06,12,38,15.60
2014,06,06,12,39,15.50
2014,06,06,12,40,15.50
2014,06,06,12,41,15.50
2014,06,06,12,42,15.60
2014,06,06,12,43,15.60
2014,06,06,12,44,15.60
2014,06,06,12,45,15.60
2014,06,06,12,46,15.70
2014,06,06,12,47,15.80
2014,06,06,12,48,15.70
2014,06,06,12,49,15.70
2014,06,06,12,50,15.60
2014,06,06,12,51,15.60
2014,06,06,12,52,15.60
2014,06,06,12,53,15.50
2014,06,06,12,54,15.50
2014,06,06,12,55,15.60
2014,06,06,12,56,15.60
2014,06,06,12,57,15.60
2014,06,06,12,58,15.60
2014,06,06,12,59,15.70
2014,06,06,13,00,15.60
2014,06,06,13,01,15.60
2014,06,06,13,02,15.70
2014,06,06,13,03,15.70
2014,06,06,13,04,15.70
2014,06,06,13,05,15.70
2014,06,06,13,06,15.80
2014,06,06,13,07,15.80
2014,06,06,13,08,15.80
2014,06,06,13,09,15.80
2014,06,06,13,10,15.90
2014,06,06,13,11,16.00
2014,06,06,13,12,16.00
2014,06,06,13,13,16.10
2014,06,06,13,14,16.10
2014,06,06,13,15,16.10
2014,06,06,13,16,16.10
2014,06,06,13,17,16.10
2014,06,06,13,18,16.10
2014,06,06,13,19,16.10
2014,06,06,13,20,16.10
2014,06,06,13,21,16.10
2014,06,06,13,22,16.10
2014,06,06,13,23,16.10
2014,06,06,13,24,16.10
2014,06,06,13,25,16.20
2014,06,06,13,26,16.20
2014,06,06,13,27,16.20
2014,06,06,13,28,16.20
2014,06,06,13,29,16.30
2014,06,06,13,30,16.30
2014,06,06,13,31,16.30
2014,06,06,13,32,16.30
2014,06,06,13,33,16.30
2014,06,06,13,34,16.30
2014,06,06,13,35,16.30
2014,06,06,13,36,16.30
2014,06,06,13,37,16.30
2014,06,06,13,38,16.30
2014,06,06,13,39,16.30
2014,06,06,13,40,16.30
2014,06,06,13,41,16.30
2014,06,06,13,42,16.20
2014,06,06,13,43,16.20
2014,06,06,13,44,16.10
2014,06,06,13,45,16.10
2014,06,06,13,46,16.10
2014,06,06,13,47,16.10
2014,06,06,13,48,16.20
2014,06,06,13,49,16.20
2014,06,06,13,50,16.30
2014,06,06,13,51,16.30
2014,06,06,13,52,16.30
2014,06,06,13,53,16.30
2014,06,06,13,54,16.30
2014,06,06,13,55,16.30
2014,06,06,13,56,16.30
2014,06,06,13,57,16.30
2014,06,06,13,58,16.30
2014,06,06,13,59,16.30
2014,06,06,14,00,16.30
2014,06,06,14,01,16.30
2014,06,06,14,02,16.30
2014,06,06,14,03,16.20
2014,06,06,14,04,16.10
2014,06,06,14,05,16.10
2014,06,06,14,06,16.00
2014,06,06,14,07,16.00
2014,06,06,14,08,16.00
2014,06,06,14,09,16.10
2014,06,06,14,10,16.10
2014,06,06,14,11,16.10
2014,06,06,14,12,16.00
2014,06,06,14,13,15.90
2014,06,06,14,14,16.00
2014,06,06,14,15,15.90
2014,06,06,14,16,15.90
2014,06,06,14,17,15.90
2014,06,06,14,18,15.80
2014,06,06,14,19,15.70
2014,06,06,14,20,15.70
2014,06,06,14,21,15.60
2014,06,06,14,22,15.40
2014,06,06,14,23,15.30
2014,06,06,14,24,15.10
2014,06,06,14,25,15.00
2014,06,06,14,26,14.90
2014,06,06,14,27,14.80
2014,06,06,14,28,14.80
2014,06,06,14,29,14.70
2014,06,06,14,30,14.60
2014,06,06,14,31,14.60
2014,06,06,14,32,14.60
2014,06,06,14,33,14.60
2014,06,06,14,34,14.70
2014,06,06,14,35,14.80
2014,06,06,14,36,15.00
2014,06,06,14,37,15.20
2014,06,06,14,38,15.40
2014,06,06,14,39,15.60
2014,06,06,14,40,15.70
2014,06,06,14,41,15.70
2014,06,06,14,42,15.70
2014,06,06,14,43,15.60
2014,06,06,14,44,15.50
2014,06,06,14,45,15.50
2014,06,06,14,46,15.50
2014,06,06,14,47,15.60
2014,06,06,14,48,15.70
2014,06,06,14,49,15.90
2014,06,06,14,50,16.10
2014,06,06,14,51,16.30
2014,06,06,14,52,16.30
2014,06,06,14,53,16.30
2014,06,06,14,54,16.40
2014,06,06,14,55,16.30
2014,06,06,14,56,16.30
2014,06,06,14,57,16.30
2014,06,06,14,58,16.20
2014,06,06,14,59,16.20
2014,06,06,15,00,16.20
2014,06,06,15,01,16.20
2014,06,06,15,02,16.20
2014,06,06,15,03,16.20
2014,06,06,15,04,16.20
2014,06,06,15,05,16.20
2014,06,06,15,06,16.20
2014,06,06,15,07,16.10
2014,06,06,15,08,16.00
2014,06,06,15,09,15.90
2014,06,06,15,10,15.80
2014,06,06,15,11,15.80
2014,06,06,15,12,15.70
2014,06,06,15,13,15.60
2014,06,06,15,14,15.40
2014,06,06,15,15,15.20
2014,06,06,15,16,15.10
2014,06,06,15,17,15.00
2014,06,06,15,18,15.00
2014,06,06,15,19,15.00
2014,06,06,15,20,14.90
2014,06,06,15,21,14.90
2014,06,06,15,22,14.80
2014,06,06,15,23,14.70
2014,06,06,15,24,14.60
2014,06,06,15,25,14.50
2014,06,06,15,26,14.40
2014,06,06,15,27,14.40
2014,06,06,15,28,14.30
2014,06,06,15,29,14.20
2014,06,06,15,30,14.10
2014,06,06,15,31,14.00
2014,06,06,15,32,13.90
2014,06,06,15,33,14.00
2014,06,06,15,34,14.00
2014,06,06,15,35,14.00
2014,06,06,15,36,14.00
2014,06,06,15,37,14.00
2014,06,06,15,38,14.00
2014,06,06,15,39,14.00
2014,06,06,15,40,13.90
2014,06,06,15,41,13.90
2014,06,06,15,42,14.00
2014,06,06,15,43,14.00
2014,06,06,15,44,14.10
2014,06,06,15,45,14.10
2014,06,06,15,46,14.10
2014,06,06,15,47,14.10
2014,06,06,15,48,14.10
2014,06,06,15,49,14.00
2014,06,06,15,50,14.00
2014,06,06,15,51,13.90
2014,06,06,15,52,14.00
2014,06,06,15,53,14.10
2014,06,06,15,54,14.10
2014,06,06,15,55,14.10
2014,06,06,15,56,14.10
2014,06,06,15,57,14.10
2014,06,06,15,58,14.10
2014,06,06,15,59,14.10
2014,06,06,16,00,14.00
2014,06,06,16,01,14.00
2014,06,06,16,02,14.00
2014,06,06,16,03,14.10
2014,06,06,16,04,14.20
2014,06,06,16,05,14.30
2014,06,06,16,06,14.40
2014,06,06,16,07,14.50
2014,06,06,16,08,14.50
2014,06,06,16,09,14.50
2014,06,06,16,10,14.50
2014,06,06,16,11,14.60
2014,06,06,16,12,14.70
2014,06,06,16,13,14.90
2014,06,06,16,14,15.00
2014,06,06,16,15,15.10
2014,06,06,16,16,15.30
2014,06,06,16,17,15.50
2014,06,06,16,18,15.60
2014,06,06,16,19,15.80
2014,06,06,16,20,15.90
2014,06,06,16,21,16.10
2014,06,06,16,22,16.30
2014,06,06,16,23,16.80
2014,06,06,16,24,17.40
2014,06,06,16,25,17.90
2014,06,06,16,26,18.50
2014,06,06,16,27,19.00
2014,06,06,16,28,19.40
2014,06,06,16,29,19.80
2014,06,06,16,30,20.10
2014,06,06,16,31,20.40
2014,06,06,16,32,20.60
2014,06,06,16,33,20.80
2014,06,06,16,34,21.00
2014,06,06,16,35,21.10
2014,06,06,16,36,21.20
2014,06,06,16,37,21.30
2014,06,06,16,38,21.40
2014,06,06,16,39,21.40
2014,06,06,16,40,21.50
2014,06,06,16,41,21.50
2014,06,06,16,42,21.60
2014,06,06,16,43,21.60
2014,06,06,16,44,21.60
2014,06,06,16,45,21.60
2014,06,06,16,46,21.50
2014,06,06,16,47,21.50
2014,06,06,16,48,21.50
2014,06,06,16,49,21.50
2014,06,06,16,50,21.60
2014,06,06,16,51,21.60
2014,06,06,16,52,21.60
2014,06,06,16,53,21.70
2014,06,06,16,54,21.70
2014,06,06,16,55,21.70
2014,06,06,16,56,21.60
2014,06,06,16,57,21.70
2014,06,06,16,58,21.70
2014,06,06,16,59,21.80
2014,06,06,17,00,21.80
2014,06,06,17,01,21.90
2014,06,06,17,02,22.00
2014,06,06,17,03,22.00
2014,06,06,17,04,22.10
2014,06,06,17,05,22.00
2014,06,06,17,06,22.00
2014,06,06,17,07,22.00
2014,06,06,17,08,22.00
2014,06,06,17,09,22.00
2014,06,06,17,10,21.90
2014,06,06,17,11,21.90
2014,06,06,17,12,21.90
2014,06,06,17,13,21.90
2014,06,06,17,14,21.90
2014,06,06,17,15,21.80
2014,06,06,17,16,21.70
2014,06,06,17,17,21.60
2014,06,06,17,18,21.50
2014,06,06,17,19,21.40
2014,06,06,17,20,21.30
2014,06,06,17,21,21.20
2014,06,06,17,22,21.20
2014,06,06,17,23,21.10
2014,06,06,17,24,21.10
2014,06,06,17,25,21.00
2014,06,06,17,26,20.90
2014,06,06,17,27,20.90
2014,06,06,17,28,20.80
2014,06,06,17,29,20.70
2014,06,06,17,30,20.60
2014,06,06,17,31,20.50
2014,06,06,17,32,20.40
2014,06,06,17,33,20.30
2014,06,06,17,34,20.30
2014,06,06,17,35,20.20
2014,06,06,17,36,20.10
2014,06,06,17,37,20.00
2014,06,06,17,38,20.00
2014,06,06,17,39,19.80
2014,06,06,17,40,19.80
2014,06,06,17,41,19.70
2014,06,06,17,42,19.60
2014,06,06,17,43,19.50
2014,06,06,17,44,19.50
2014,06,06,17,45,19.40
2014,06,06,17,46,19.30
2014,06,06,17,47,19.30
2014,06,06,17,48,19.20
2014,06,06,17,49,19.20
2014,06,06,17,50,19.20
2014,06,06,17,51,19.20
2014,06,06,17,52,19.20
2014,06,06,17,53,19.20
2014,06,06,17,54,19.20
2014,06,06,17,55,19.20
2014,06,06,17,56,19.20
2014,06,06,17,57,19.20
2014,06,06,17,58,19.20
2014,06,06,17,59,19.10
2014,06,06,18,00,19.10
2014,06,06,18,01,19.10
2014,06,06,18,02,19.10
2014,06,06,18,03,19.10
2014,06,06,18,04,19.10
2014,06,06,18,05,19.10
2014,06,06,18,06,19.10
2014,06,06,18,07,19.00
2014,06,06,18,08,19.00
2014,06,06,18,09,19.00
2014,06,06,18,10,19.00
2014,06,06,18,11,19.10
2014,06,06,18,12,19.10
2014,06,06,18,13,19.20
2014,06,06,18,14,19.20
2014,06,06,18,15,19.20
2014,06,06,18,16,19.20
2014,06,06,18,17,19.20
2014,06,06,18,18,19.10
2014,06,06,18,19,19.10
2014,06,06,18,20,19.00
2014,06,06,18,21,18.90
2014,06,06,18,22,18.90
2014,06,06,18,23,18.80
2014,06,06,18,24,18.80
2014,06,06,18,25,18.70
2014,06,06,18,26,18.70
2014,06,06,18,27,18.70
2014,06,06,18,28,18.70
2014,06,06,18,29,18.70
2014,06,06,18,30,18.70
2014,06,06,18,31,18.60
2014,06,06,18,32,18.60
2014,06,06,18,33,18.50
2014,06,06,18,34,18.40
2014,06,06,18,35,18.30
2014,06,06,18,36,18.20
2014,06,06,18,37,18.20
2014,06,06,18,38,18.10
2014,06,06,18,39,18.10
2014,06,06,18,40,18.10
2014,06,06,18,41,18.20
2014,06,06,18,42,18.20
2014,06,06,18,43,18.30
2014,06,06,18,44,18.30
2014,06,06,18,45,18.30
2014,06,06,18,46,18.30
2014,06,06,18,47,18.30
2014,06,06,18,48,18.30
2014,06,06,18,49,18.30
2014,06,06,18,50,18.20
2014,06,06,18,51,18.20
2014,06,06,18,52,18.10
2014,06,06,18,53,18.10
2014,06,06,18,54,18.00
2014,06,06,18,55,18.00
2014,06,06,18,56,18.00
2014,06,06,18,57,18.00
2014,06,06,18,58,17.90
2014,06,06,18,59,17.90
2014,06,06,19,00,17.90
2014,06,06,19,01,17.90
2014,06,06,19,02,17.90
2014,06,06,19,03,17.90
2014,06,06,19,04,17.90
2014,06,06,19,05,17.90
2014,06,06,19,06,17.90
2014,06,06,19,07,17.80
2014,06,06,19,08,17.70
2014,06,06,19,09,17.70
2014,06,06,19,10,17.70
2014,06,06,19,11,17.60
2014,06,06,19,12,17.50
2014,06,06,19,13,17.40
2014,06,06,19,14,17.40
2014,06,06,19,15,17.30
2014,06,06,19,16,17.30
2014,06,06,19,17,17.30
2014,06,06,19,18,17.20
2014,06,06,19,19,17.20
2014,06,06,19,20,17.20
2014,06,06,19,21,17.20
2014,06,06,19,22,17.10
2014,06,06,19,23,17.00
2014,06,06,19,24,17.00
2014,06,06,19,25,16.90
2014,06,06,19,26,16.90
2014,06,06,19,27,16.80
2014,06,06,19,28,16.80
2014,06,06,19,29,16.70
2014,06,06,19,30,16.70
2014,06,06,19,31,16.60
2014,06,06,19,32,16.50
2014,06,06,19,33,16.50
2014,06,06,19,34,16.40
2014,06,06,19,35,16.30
2014,06,06,19,36,16.20
2014,06,06,19,37,16.20
2014,06,06,19,38,16.10
2014,06,06,19,39,16.00
2014,06,06,19,40,16.00
2014,06,06,19,41,15.90
2014,06,06,19,42,15.90
2014,06,06,19,43,15.90
2014,06,06,19,44,15.90
2014,06,06,19,45,15.90
2014,06,06,19,46,15.90
2014,06,06,19,47,15.90
2014,06,06,19,48,15.90
2014,06,06,19,49,15.90
2014,06,06,19,50,15.90
2014,06,06,19,51,15.90
